Regional Weather Roundup
Issued by NWS Charleston, SC

Current Version | Previous Version | Graphics & Text | Print | Product List | Glossary On
Versions: 1 2 3 4 5 6 7 8 9 10 11 12 13 14 15 16 17 18 19 20 21 22 23 24 25 26 27 28 29 30 31 32 33 34 35 36 37 38 39 40 41 42 43 44 45 46 47 48 49 50
000 ASUS42 KCHS 292027 RWRCHS REGIONAL WEATHER ROUNDUP NATIONAL WEATHER SERVICE CHARLESTON SC 400 PM EDT WED MAR 29 2017 NOTE: "FAIR" INDICATES FEW OR NO CLOUDS BELOW 12,000 FEET WITH NO SIGNIFICANT WEATHER AND/OR OBSTRUCTIONS TO VISIBILITY. NOT ALL STATIONS ARE QUALITY CONTROLLED. USE DATA WITH CAUTION... ESPECIALLY DEWPOINT OBSERVATIONS. SCZ027-030-031-034>040-042>050-292100- ...SOUTHEAST SOUTH CAROLINA... CITY SKY/WX TMP DP RH WIND PRES REMARKS N CHARLESTON MOSUNNY 81 56 42 SE13 29.98F WATERFRONT PRK N/A 71 62 73 SE7 29.98F JOHNS ISLAND FAIR 75 63 64 SE7 30.00S PINOPOLIS N/A 75 61 60 VRB3 29.92F MONCKS CORNER FAIR 82 45 26 N5 29.98S SUMMERVILLE FAIR 82 46 28 CALM 29.98F BEAUFORT MCAS SUNNY 83 61 47 SE3 29.99F BEAUFORT ARPT FAIR 79 61 53 SE6 29.98F HILTON HEAD IS NOT AVBL WALTERBORO CLEAR 82 48 30 CALM 29.98F ALLENDALE FAIR 84 50 30 N9G16 29.97F ...SOUTHERN MIDLANDS AND PEE DEE... CITY SKY/WX TMP DP RH WIND PRES REMARKS GEORGETOWN FAIR 72 61 68 SE14 30.01S KINGSTREE FAIR 81 45 28 CALM 29.98S ORANGEBURG SUNNY 83 49 30 VRB3 29.98F BARNWELL FAIR 86 52 30 CALM 29.97F AIKEN FAIR 82 50 32 NW8 30.03S MANNING FAIR 81 50 34 S6 29.98F COLUMBIA MOSUNNY 83 50 31 CALM 29.98F SUMTER SUNNY 82 48 30 NW5 29.97F FLORENCE SUNNY 81 53 37 VRB7 30.00S MYRTLE BEACH MOSUNNY 70 59 68 E17G23 30.03S N MYRTLE BEACH MOSUNNY 67 59 75 E15 30.02S $$ GAZ063-065-086>088-099>101-113>116-118-119-134>141-150-292100- ...SOUTHEAST GEORGIA... CITY SKY/WX TMP DP RH WIND PRES REMARKS SAVANNAH ARPT PTSUNNY 84 56 38 E10 29.98F HUNTER AAF MOSUNNY 81 61 50 E6 29.97F FORT STEWART CLOUDY 87 56 34 NW9 29.96F STATESBORO PTSUNNY 86 58 38 S5 29.98F SYLVANIA PTCLDY N/A N/A N/A W5 29.99F CLAXTON FAIR 85 59 41 W5 29.98F ...CSRA...CENTRAL AND FAR SOUTHEAST GEORGIA... CITY SKY/WX TMP DP RH WIND PRES REMARKS THOMSON MOSUNNY 84 51 31 N9 30.04F AUGUSTA-BUSH SUNNY 87 53 31 N9 29.98F AUGUSTA-DANIEL SUNNY 84 49 29 VRB6 30.00F SWAINSBORO MOCLDY 82 52 34 CALM 30.00S VIDALIA PTSUNNY 86 55 35 CALM 29.99S EASTMAN FAIR 88 35 15 SW6 30.01S HAZLEHURST FAIR 88 60 38 S3 29.97S ALMA CLOUDY 84 60 44 CALM 29.98F WAYCROSS MOSUNNY 88 65 46 SW8 29.97F HX 90 JESUP FAIR 88 52 29 NW6 29.97F BAXLEY FAIR 86 64 48 NW6 29.97F BRUNSWICK PTSUNNY 81 68 65 E7 30.00S SAINT SIMONS PTSUNNY 74 62 66 E9 30.00F $$ SCZ027-028-034-036>038-045-046-048>050-GAZ119-141-292100- ...LAKE AND SUPPLEMENTAL COASTAL OBSERVATIONS... STATION/POSITION TIME TEMP WIND PRES WAVE SWELL AIR SEA DIR/SP/G HT/PER HT/PER/DIR (UTC) (F) (DEG/KT/KT) (MB) (FT/S) (FT/S/D) WINYAH BAY 1930 65 100/ 11 1016.0S LAKE MURRAY 2020 74 210/ 7/ 8 1014.9 ACE BASIN NERRS 1930 80 140/ 3 1015.0F FORT PULASKI 2000 67 67 90/ 10/ 11 1016.2 SAPELO ISLAND 2000 77 100/ 9 1016.0 $$ ANZ835-935-AMZ111-154-330-350-352-354-370-450-454-472-292100- ...C-MAN AND BUOY OBSERVATIONS... STATION/POSITION TIME TEMP WIND PRES WAVE SWELL AIR SEA DIR/SP/G HT/PER HT/PER/DIR (UTC) (F) (DEG/KT/KT) (MB) (FT/S) (FT/S/D) BUOY 41004 1950 70 71 30/ 10/ 12 1015.6F 4/10 3/120/10 BUOY 41008 1950 66 67 40/ 8/ 10 1015.9F 3/10 3/ 90/10 FOLLY BEACH CMAN 2000 67 90/ 9/ 11 1016.6F CAPERS NEARSHORE NOT AVBL FRIPP NEARSHORE 2008 66 64 110/ 6/ 8 1015.9F STATION/POSITION TIME TEMP WIND PRES WAVE SWELL AIR SEA DIR/SP/G HT/PER HT/PER/DIR (UTC) (F) (DEG/KT/KT) (MB) (FT/S) (FT/S/D) 5E ST. MARYS GA 2000 70 N/A 3/11 2/110/11 FRYING PAN BUOY 2010 66 73 40/ 17/ 21 1016.8 BUOY 41025 1950 57 73 30/ 21/ 25 1017.7R 6/ 9 3/130/ 9 CAPE LOOKOUT NC 2000 59 40/ 20/ 22 1017.6R BUOY 41002 1950 73 73 320/ 6/ 8 1014.7S 6/10 7/130/10 BUOY 41010 NOT AVBL ST AUGUSTINE FL 2000 71 70 100/ 5/ 6 1016.5F $$

USA.gov is the U.S. government's official web portal to all federal, state and local government web resources and services.